EN

Hourly Weather Lugi

Today, 14 May, Friday

Time Temperature Precipitation Wind Pressure Humidity
00:00 +12°C° 0 mm 2 mps 734 mmHg 94%
01:00 +10°C° 0 mm 2 mps 734 mmHg 96%
02:00 +10°C° 0.3 mm 2 mps 734 mmHg 96%
03:00 +10°C° 0.3 mm 2 mps 734 mmHg 97%
04:00 +10°C° 0.3 mm 2 mps 734 mmHg 98%
05:00 +12°C° 0.2 mm 2 mps 734 mmHg 95%
06:00 +13°C° 0.2 mm 2 mps 734 mmHg 93%
07:00 +14°C° 0 mm 2 mps 734 mmHg 91%
08:00 +14°C° 0.1 mm 2 mps 735 mmHg 88%
09:00 +15°C° 0.1 mm 2 mps 735 mmHg 86%
10:00 +16°C° 0.1 mm 2 mps 735 mmHg 84%
11:00 +17°C° 0.2 mm 2 mps 735 mmHg 79%
12:00 +18°C° 0.2 mm 1 mps 736 mmHg 74%
13:00 +19°C° 0.2 mm 1 mps 736 mmHg 70%
14:00 +18°C° 1 mm 2 mps 736 mmHg 70%
15:00 +18°C° 1 mm 2 mps 736 mmHg 71%
16:00 +18°C° 1 mm 3 mps 736 mmHg 71%
17:00 +17°C° 1 mm 4 mps 736 mmHg 77%
18:00 +15°C° 1 mm 5 mps 737 mmHg 83%
19:00 +13°C° 1 mm 5 mps 737 mmHg 89%
20:00 +12°C° 0 mm 5 mps 738 mmHg 91%
21:00 +12°C° 0 mm 5 mps 738 mmHg 92%
22:00 +10°C° 0 mm 5 mps 739 mmHg 94%
23:00 +10°C° 0 mm 4 mps 739 mmHg 94%

Tomorrow, 15 May, Saturday

Time Temperature Precipitation Wind Pressure Humidity
00:00 +10°C° 0 mm 4 mps 739 mmHg 94%
01:00 +8°C° 0 mm 4 mps 739 mmHg 94%
02:00 +9°C° 0 mm 3 mps 740 mmHg 94%
03:00 +9°C° 0 mm 3 mps 740 mmHg 93%
04:00 +8°C° 0 mm 3 mps 740 mmHg 93%
05:00 +9°C° 0 mm 3 mps 740 mmHg 88%
06:00 +11°C° 0 mm 4 mps 741 mmHg 84%
07:00 +12°C° 0 mm 5 mps 741 mmHg 79%
08:00 +13°C° 0 mm 5 mps 741 mmHg 73%
09:00 +14°C° 0 mm 5 mps 741 mmHg 67%
10:00 +15°C° 0 mm 5 mps 741 mmHg 61%
11:00 +15°C° 0 mm 4 mps 741 mmHg 60%
12:00 +17°C° 0 mm 4 mps 741 mmHg 59%
13:00 +17°C° 0 mm 3 mps 741 mmHg 59%
14:00 +18°C° 0 mm 3 mps 741 mmHg 57%
15:00 +18°C° 0 mm 2 mps 741 mmHg 56%
16:00 +19°C° 0 mm 1 mps 741 mmHg 55%
17:00 +17°C° 0 mm 2 mps 741 mmHg 62%
18:00 +16°C° 0 mm 2 mps 740 mmHg 68%
19:00 +14°C° 0 mm 2 mps 740 mmHg 75%
20:00 +14°C° 0 mm 2 mps 740 mmHg 80%
21:00 +13°C° 0 mm 2 mps 740 mmHg 85%
22:00 +11°C° 0 mm 3 mps 740 mmHg 89%
23:00 +11°C° 0 mm 3 mps 740 mmHg 90%

Day after tomorrow, 16 May, Sunday

Time Temperature Precipitation Wind Pressure Humidity
00:00 +10°C° 0 mm 3 mps 740 mmHg 90%
01:00 +10°C° 0 mm 3 mps 740 mmHg 91%
02:00 +10°C° 0 mm 3 mps 739 mmHg 92%
03:00 +10°C° 0 mm 4 mps 739 mmHg 92%
04:00 +10°C° 0 mm 4 mps 739 mmHg 93%
05:00 +11°C° 0 mm 4 mps 739 mmHg 88%
06:00 +13°C° 0 mm 4 mps 739 mmHg 83%
07:00 +14°C° 0 mm 5 mps 739 mmHg 78%
08:00 +15°C° 0.2 mm 5 mps 739 mmHg 75%
09:00 +16°C° 0.2 mm 5 mps 739 mmHg 72%
10:00 +18°C° 0.2 mm 4 mps 739 mmHg 69%
11:00 +17°C° 0.6 mm 4 mps 739 mmHg 76%
12:00 +14°C° 0.6 mm 3 mps 739 mmHg 83%
13:00 +14°C° 0.6 mm 2 mps 739 mmHg 90%
14:00 +14°C° 0.9 mm 2 mps 739 mmHg 91%
15:00 +13°C° 0.9 mm 2 mps 738 mmHg 93%
16:00 +12°C° 0.9 mm 3 mps 738 mmHg 95%
17:00 +11°C° 0.5 mm 3 mps 739 mmHg 95%
18:00 +11°C° 0.5 mm 3 mps 739 mmHg 95%
19:00 +10°C° 0.5 mm 2 mps 739 mmHg 95%
20:00 +10°C° 0 mm 2 mps 739 mmHg 95%
21:00 +10°C° 0 mm 2 mps 739 mmHg 95%
22:00 +9°C° 0 mm 2 mps 739 mmHg 95%
23:00 +9°C° 0 mm 2 mps 740 mmHg 94%

17 May, Monday

Time Temperature Precipitation Wind Pressure Humidity
00:00 +8°C° 0 mm 2 mps 740 mmHg 94%
01:00 +7°C° 0 mm 2 mps 740 mmHg 94%
02:00 +7°C° 0 mm 2 mps 740 mmHg 94%
03:00 +7°C° 0 mm 2 mps 740 mmHg 94%
04:00 +7°C° 0 mm 2 mps 740 mmHg 94%
05:00 +9°C° 0 mm 2 mps 740 mmHg 89%
06:00 +10°C° 0 mm 3 mps 740 mmHg 85%
07:00 +12°C° 0 mm 3 mps 740 mmHg 80%
08:00 +14°C° 0 mm 3 mps 740 mmHg 74%
09:00 +16°C° 0 mm 3 mps 740 mmHg 67%
10:00 +18°C° 0 mm 3 mps 740 mmHg 61%
11:00 +18°C° 0.3 mm 4 mps 740 mmHg 61%
12:00 +18°C° 0.3 mm 4 mps 740 mmHg 61%
13:00 +17°C° 0.3 mm 5 mps 739 mmHg 62%
14:00 +17°C° 0.4 mm 4 mps 739 mmHg 68%
15:00 +15°C° 0.4 mm 4 mps 740 mmHg 74%
16:00 +14°C° 0.4 mm 3 mps 740 mmHg 81%
17:00 +13°C° 0.2 mm 3 mps 739 mmHg 84%
18:00 +12°C° 0.2 mm 3 mps 739 mmHg 87%
19:00 +12°C° 0.2 mm 3 mps 739 mmHg 91%
20:00 +11°C° 0 mm 3 mps 739 mmHg 92%
21:00 +10°C° 0 mm 3 mps 740 mmHg 93%
22:00 +10°C° 0 mm 3 mps 740 mmHg 93%
23:00 +9°C° 0 mm 3 mps 740 mmHg 94%

18 May, Tuesday

Time Temperature Precipitation Wind Pressure Humidity
00:00 +9°C° 0 mm 3 mps 740 mmHg 94%
01:00 +8°C° 0 mm 3 mps 740 mmHg 95%
02:00 +8°C° 0 mm 3 mps 740 mmHg 95%
03:00 +7°C° 0 mm 3 mps 740 mmHg 95%
04:00 +7°C° 0 mm 2 mps 740 mmHg 94%
05:00 +8°C° 0 mm 3 mps 741 mmHg 89%
06:00 +10°C° 0 mm 3 mps 741 mmHg 84%
07:00 +11°C° 0 mm 3 mps 741 mmHg 79%
08:00 +12°C° 0 mm 3 mps 741 mmHg 72%
09:00 +14°C° 0 mm 4 mps 741 mmHg 66%
10:00 +15°C° 0 mm 4 mps 741 mmHg 60%
11:00 +15°C° 0 mm 4 mps 741 mmHg 59%
12:00 +15°C° 0 mm 4 mps 741 mmHg 58%
13:00 +17°C° 0 mm 4 mps 741 mmHg 57%
14:00 +15°C° 0.1 mm 4 mps 741 mmHg 60%
15:00 +15°C° 0.1 mm 4 mps 741 mmHg 63%
16:00 +15°C° 0.1 mm 4 mps 741 mmHg 65%
17:00 +14°C° 0.2 mm 3 mps 741 mmHg 72%
18:00 +12°C° 0.2 mm 3 mps 742 mmHg 78%
19:00 +12°C° 0.2 mm 2 mps 742 mmHg 85%
20:00 +10°C° 0 mm 2 mps 742 mmHg 87%
21:00 +9°C° 0 mm 3 mps 742 mmHg 90%
22:00 +9°C° 0 mm 3 mps 742 mmHg 92%
23:00 +8°C° 0 mm 3 mps 743 mmHg 93%

19 May, Wednesday

Time Temperature Precipitation Wind Pressure Humidity
00:00 +8°C° 0 mm 3 mps 743 mmHg 94%
01:00 +7°C° 0 mm 3 mps 743 mmHg 94%
02:00 +7°C° 0 mm 3 mps 743 mmHg 95%
03:00 +7°C° 0 mm 3 mps 744 mmHg 95%
04:00 +5°C° 0 mm 3 mps 744 mmHg 96%
05:00 +8°C° 0 mm 3 mps 744 mmHg 92%
06:00 +8°C° 0 mm 4 mps 744 mmHg 88%
07:00 +10°C° 0 mm 4 mps 745 mmHg 84%
08:00 +11°C° 0.2 mm 4 mps 745 mmHg 82%
09:00 +12°C° 0.2 mm 4 mps 745 mmHg 80%
10:00 +12°C° 0.2 mm 4 mps 745 mmHg 78%
11:00 +13°C° 0.4 mm 4 mps 745 mmHg 73%
12:00 +14°C° 0.4 mm 5 mps 745 mmHg 67%
13:00 +15°C° 0.4 mm 5 mps 745 mmHg 62%
14:00 +15°C° 0.1 mm 4 mps 745 mmHg 60%
15:00 +15°C° 0.1 mm 4 mps 745 mmHg 57%
16:00 +15°C° 0.1 mm 4 mps 745 mmHg 55%
17:00 +14°C° 0 mm 3 mps 745 mmHg 61%
18:00 +13°C° 0 mm 2 mps 745 mmHg 66%
19:00 +12°C° 0 mm 2 mps 745 mmHg 71%
20:00 +10°C° 0 mm 2 mps 745 mmHg 76%
21:00 +9°C° 0 mm 2 mps 745 mmHg 81%
22:00 +8°C° 0 mm 2 mps 746 mmHg 86%
23:00 +8°C° 0 mm 2 mps 746 mmHg 88%
Show more